[[{"header":{"parameterUnit":"m.s-1","parameterCategory":2,"la1":30.2991,"la2":30.254,"lo1":-89.0895,"lo2":-89.0444,"dy":0.0017,"dx":0.0017,"nx":28,"ny":28,"refTime":"2025-05-23T09:00:00:Z","depth":"0","parameterNumber":2,"parameterNumberName":"U-component_of_CURRENTS"},"data":[0,0,0,0,0,0,0,0,0,0,0,0,0,0,0,0,0,0,0,0,0,0,0,0,0,0,0,0,0,0,0,0,0,0,0,0,0,0,0,0,0,0,0,0,0,0,0,0,0,0,0,0,0,0,0,0,0,0,0.2463,0.2463,0,0.2488,0.2488,0.2488,0.2466,0.2466,0.2465,0.2465,0.2475,0.2476,0.2476,0,0,0,0,0,0,0,0,0,0,0,0,0,0.2444,0.2444,0.2463,0.2463,0.2464,0.2488,0.2488,0.2488,0.2466,0.2466,0.2465,0.2464,0.2475,0.2475,0.2476,0,0,0,0,0,0,0,0,0,0,0,0,0,0.2456,0.2444,0.2463,0.2459,0.2459,0.2488,0.2488,0.2488,0.2467,0.2466,0.2465,0.2464,0.2474,0.2475,0.2477,0.2502,0,0,0.248,0.2481,0,0,0,0,0,0,0,0,0.2455,0.2456,0.2459,0.2459,0.2459,0.2476,0.2485,0.2493,0.2467,0.246,0.2465,0.2464,0.2477,0.2478,0.248,0.2502,0.2503,0.248,0.2481,0.2482,0.2482,0,0,0,0,0,0,0,0.2454,0.2455,0.2469,0.2459,0.246,0.2472,0.2472,0.2487,0.247,0.2461,0.246,0.2468,0.2476,0.2479,0.248,0.2503,0.248,0.2482,0.2482,0.2483,0.2614,0.2617,0,0,0,0,0,0,0.2456,0.2454,0.2469,0.247,0.2459,0.2473,0.2473,0.2469,0.247,0.2471,0.2469,0.2467,0.2477,0.2478,0.248,0.2539,0.2482,0.2483,0.2484,0.2611,0.2615,0.2618,0,0,0,0,0,0,0.2456,0.2457,0.2468,0.2466,0.2469,0.2474,0.247,0.247,0.2476,0.2477,0.2477,0.2476,0.2476,0.2478,0.2511,0.2538,0.2483,0.2485,0.2608,0.2612,0.2616,0.2639,0,0,0,0,0,0,0.2455,0.2456,0.2458,0.2466,0.2469,0.2494,0.2471,0.2471,0.2484,0.2482,0.2484,0.2483,0.2476,0.2509,0.2512,0.2539,0.2486,0.2605,0.261,0.2615,0.2635,0.2644,0.2651,0,0,0,0,0,0.2454,0.2458,0.2457,0.246,0.2469,0.2495,0.2498,0.2497,0.2485,0.2497,0.2504,0.2483,0.2544,0.2512,0.2515,0.2543,0.2602,0.2609,0.2615,0.2632,0.2642,0.2651,0,0,0,0,0,0,0.2451,0.2457,0.2456,0.2462,0.2483,0.2493,0.2502,0.2505,0.2519,0.2515,0.2509,0.251,0.2552,0.2556,0.252,0.2603,0.2575,0.2582,0.2587,0.2597,0.2605,0.2613,0.2487,0,0,0,0,0,0.2453,0.2455,0.2472,0.2479,0.2487,0.2497,0.2508,0.2511,0.2525,0.2528,0.2529,0.2547,0.2582,0.2593,0.2616,0.2654,0.2643,0.2682,0.269,0.2696,0.271,0.2729,0.2739,0.2638,0.2638,0.2638,0,0,0.2454,0.2459,0.2461,0.2479,0.2488,0.2515,0.25,0.252,0.255,0.253,0.2559,0.2571,0.2601,0.2645,0.2665,0.2647,0.2716,0.2704,0.2709,0.272,0.2736,0.2746,0.2754,0.2642,0.2641,0.2641,0,0,0.2459,0.2462,0.2465,0.2489,0.2513,0.253,0.254,0.2556,0.2567,0.2603,0.2607,0.2645,0.2671,0.2708,0.273,0.2805,0.2759,0.2808,0.2848,0.2865,0.2873,0.2879,0.2847,0.2851,0.2809,0.2809,0.281,0,0.246,0.2465,0.2475,0.2494,0.2515,0.254,0.2562,0.2594,0.262,0.2634,0.2618,0.2688,0.2711,0.2785,0.2816,0.2822,0.2798,0.2798,0.2871,0.2878,0.2884,0.285,0.2854,0.2811,0.2811,0.2811,0.2811,0,0.2469,0.2483,0.2491,0.2522,0.2552,0.2577,0.2623,0.265,0.2663,0.2686,0.2742,0.2775,0.2813,0.2838,0.285,0.2919,0.2874,0.2874,0.2833,0.2895,0.2856,0.2859,0.2814,0.2813,0.2813,0.2812,0,0,0.2439,0.2485,0.2488,0.2503,0.2566,0.2587,0.2651,0.2704,0.2727,0.2771,0.28,0.289,0.2889,0.292,0.2939,0.297,0.2993,0.294,0.294,0.2884,0.2982,0.2726,0.2704,0.2986,0.2987,0.2989,0.2925,0,0.2439,0.2469,0.25,0.2545,0.2564,0.2616,0.2668,0.2726,0.2762,0.2798,0.2864,0.2902,0.2929,0.2934,0.2979,0.2999,0.3007,0.3008,0.2954,0.2952,0.2697,0.2702,0.255,0.246,0.2927,0.2928,0.2928,0,0.2429,0.2452,0.2485,0.2539,0.255,0.2587,0.2651,0.2701,0.2783,0.2805,0.2865,0.2898,0.2987,0.2978,0.3042,0.303,0.3013,0.3016,0.3013,0.277,0.2702,0.2485,0.2447,0.2364,0.2932,0.2932,0.2932,0,0.2388,0.2438,0.2459,0.2482,0.2554,0.2574,0.2616,0.2692,0.2725,0.2804,0.2817,0.2916,0.2943,0.2984,0.2988,0.3018,0.3001,0.3041,0.2789,0.277,0.263,0.2593,0.2486,0.306,0.306,0.306,0.306,0,0.2375,0.239,0.2435,0.245,0.2472,0.2532,0.2565,0.2616,0.2683,0.2717,0.2808,0.2827,0.2943,0.2945,0.2968,0.2848,0.2978,0.2783,0.2736,0.2627,0.2593,0.2504,0.2484,0.3057,0.3058,0.3058,0.3059,0,0.2336,0.2367,0.2387,0.244,0.2452,0.2467,0.2528,0.2553,0.2614,0.2657,0.2682,0.2764,0.274,0.2779,0.281,0.2766,0.2595,0.2633,0.2457,0.2388,0.2055,0.2041,0.1824,0.1791,0.2368,0.2361,0.2356,0,0.2315,0.2321,0.236,0.2368,0.239,0.242,0.2443,0.2513,0.2545,0.2602,0.2617,0.2598,0.2555,0.2452,0.2371,0.2281,0.2299,0.2073,0.211,0.198,0.1938,0.1927,0.1922,0.1949,0.1941,0.1934,0.1928,0,0.2281,0.2294,0.2318,0.2327,0.2342,0.2355,0.2393,0.2397,0.2475,0.2482,0.2444,0.2396,0.2249,0.2052,0.1888,0.1849,0.1915,0.1916,0.1875,0.1647,0.1545,0.1509,0.2028,0.1866,0.1872,0.1876,0.188,0.1882,0.2248,0.2253,0.228,0.228,0.229,0.2271,0.2239,0.2265,0.2251,0.2195,0.2246,0.2065,0.1857,0.1578,0.1509,0.1248,0.1392,0.1217,0.1227,0.1242,0.1143,0.1454,0.1169,0.1171,0.1173,0.1175,0.1176,0,0.22,0.222,0.2229,0.2209,0.2173,0.2204,0.219,0.2121,0.2032,0.1954,0.1867,0.1536,0.1268,0.1088,0.0773,0.0632,0.0711,0.0593,0.0642,0.0694,0.1046,0.096,0.0502,0.0502,0.0502,0.0502,0.0502,0.0502,0.2183,0.2177,0.2178,0.2093,0.2067,0.1968,0.1924,0.182,0.173,0.1438,0.1195,0.1087,0.0846,0.0468,0.021,0.0199,0.024,0.0097,0.0212,0.0537,0.0601,0.0663,0.058,0.0049,0.0049,-0.0131,-0.0133,-0.0135]},{"header":{"parameterUnit":"m.s-1","parameterCategory":2,"la1":30.2991,"la2":30.254,"lo1":-89.0895,"lo2":-89.0444,"dy":0.0017,"dx":0.0017,"nx":28,"ny":28,"refTime":"2025-05-23T09:00:00:Z","depth":"0","parameterNumber":3,"parameterNumberName":"V-component_of_CURRENTS"},"data":[0,0,0,0,0,0,0,0,0,0,0,0,0,0,0,0,0,0,0,0,0,0,0,0,0,0,0,0,0,0,0,0,0,0,0,0,0,0,0,0,0,0,0,0,0,0,0,0,0,0,0,0,0,0,0,0,0,0,0.0512,0.0513,0,0.0563,0.0564,0.0564,0.0569,0.0569,0.0568,0.0568,0.0613,0.0615,0.0617,0,0,0,0,0,0,0,0,0,0,0,0,0,0.0428,0.043,0.0512,0.0513,0.0514,0.0563,0.0564,0.0564,0.0569,0.0569,0.0568,0.0568,0.0613,0.0615,0.0617,0,0,0,0,0,0,0,0,0,0,0,0,0,0.047,0.043,0.0512,0.0522,0.0524,0.0563,0.0564,0.0565,0.057,0.0569,0.0568,0.0567,0.0612,0.0615,0.0617,0.0648,0,0,0.0625,0.0626,0,0,0,0,0,0,0,0,0.0468,0.0473,0.052,0.0522,0.0523,0.0559,0.0551,0.0592,0.057,0.0552,0.0568,0.0567,0.0596,0.06,0.061,0.065,0.0652,0.0625,0.0627,0.0628,0.0628,0,0,0,0,0,0,0,0.0465,0.0471,0.0532,0.0521,0.0523,0.0527,0.0532,0.0559,0.0577,0.0553,0.0554,0.056,0.0596,0.0608,0.0611,0.0652,0.0625,0.0627,0.0629,0.063,0.0739,0.074,0,0,0,0,0,0,0.046,0.0468,0.0531,0.0534,0.0493,0.0529,0.0535,0.0548,0.0577,0.0581,0.0561,0.056,0.0604,0.0609,0.0613,0.0666,0.0628,0.063,0.0631,0.0737,0.0739,0.0741,0,0,0,0,0,0,0.0458,0.0465,0.0528,0.0502,0.051,0.0532,0.0547,0.055,0.0561,0.0583,0.0586,0.0569,0.0604,0.061,0.0639,0.0667,0.0631,0.0633,0.0736,0.0738,0.074,0.0763,0,0,0,0,0,0,0.0456,0.0464,0.0472,0.0502,0.0512,0.0557,0.0548,0.0551,0.0567,0.0566,0.0591,0.0594,0.0603,0.0636,0.0642,0.067,0.0635,0.0734,0.0737,0.0739,0.0761,0.0766,0.077,0,0,0,0,0,0.0452,0.047,0.0473,0.048,0.0522,0.0558,0.0564,0.0575,0.0568,0.0581,0.0593,0.0594,0.0657,0.0639,0.0646,0.0675,0.0733,0.0736,0.0739,0.0759,0.0765,0.077,0,0,0,0,0,0,0.0441,0.0474,0.0477,0.0504,0.0529,0.0559,0.0573,0.0578,0.0599,0.0598,0.0608,0.0614,0.0651,0.0662,0.0641,0.0716,0.0697,0.0701,0.0709,0.0715,0.072,0.0744,0.0638,0,0,0,0,0,0.0442,0.0462,0.0492,0.0514,0.0527,0.0549,0.0563,0.0575,0.0597,0.0605,0.0618,0.0641,0.0672,0.0689,0.0714,0.0755,0.0757,0.078,0.0785,0.0789,0.0815,0.0838,0.0847,0.0751,0.0751,0.0751,0,0,0.0441,0.0464,0.0474,0.0513,0.0532,0.0568,0.0556,0.0586,0.0616,0.0608,0.0646,0.0656,0.0685,0.0729,0.0748,0.074,0.0812,0.0793,0.0796,0.082,0.0843,0.0852,0.086,0.0753,0.0753,0.0752,0,0,0.0461,0.0474,0.05,0.0526,0.0561,0.0581,0.0589,0.062,0.0633,0.0668,0.0674,0.0703,0.0739,0.0774,0.0796,0.0846,0.0832,0.0847,0.0897,0.0919,0.0927,0.0934,0.0918,0.0924,0.0853,0.0854,0.0854,0,0.0458,0.05,0.0512,0.055,0.0578,0.0588,0.0629,0.0651,0.0686,0.0712,0.0684,0.0761,0.077,0.085,0.0861,0.0859,0.0852,0.0868,0.0924,0.0931,0.0939,0.0921,0.0927,0.0855,0.0855,0.0855,0.0855,0,0.0503,0.0537,0.0556,0.0608,0.0638,0.0675,0.0709,0.0737,0.0744,0.0769,0.0828,0.084,0.0893,0.0894,0.0891,0.0959,0.0928,0.092,0.0906,0.0949,0.0928,0.0934,0.0857,0.0857,0.0856,0.0856,0,0,0.05,0.0572,0.0581,0.0616,0.0673,0.0706,0.0762,0.0824,0.0872,0.0888,0.0955,0.0991,0.0993,0.1019,0.102,0.1035,0.1054,0.0998,0.0999,0.0976,0.1072,0.1035,0.1037,0.1047,0.1049,0.105,0.1025,0,0.0533,0.061,0.064,0.0715,0.0758,0.0794,0.0848,0.0904,0.0939,0.1001,0.1028,0.1082,0.1044,0.1066,0.1081,0.1074,0.1076,0.106,0.1041,0.104,0.0997,0.1046,0.1053,0.1032,0.103,0.1031,0.1032,0,0.0573,0.0621,0.0697,0.078,0.0802,0.0847,0.0943,0.0993,0.1081,0.1109,0.1169,0.1186,0.124,0.1183,0.1197,0.1184,0.1136,0.1109,0.1107,0.1079,0.1017,0.0996,0.1042,0.1104,0.1041,0.104,0.104,0,0.0577,0.0663,0.0724,0.0754,0.0846,0.0889,0.0938,0.1027,0.1087,0.1183,0.1236,0.129,0.1324,0.1296,0.1242,0.1221,0.1229,0.1194,0.1112,0.1107,0.1117,0.111,0.1224,0.1195,0.1195,0.1195,0.1195,0,0.061,0.0661,0.0729,0.0768,0.0848,0.0901,0.0996,0.1055,0.1154,0.125,0.129,0.1367,0.1352,0.1356,0.1284,0.1224,0.1263,0.1141,0.1116,0.1121,0.1115,0.1171,0.1185,0.1194,0.1195,0.1195,0.1195,0,0.0619,0.0663,0.0735,0.0824,0.0854,0.091,0.1024,0.1102,0.1181,0.1309,0.1346,0.1432,0.1437,0.1393,0.135,0.128,0.1241,0.1176,0.1164,0.1139,0.1117,0.113,0.1185,0.1231,0.1096,0.1096,0.1095,0,0.0636,0.0672,0.0764,0.0809,0.0852,0.0938,0.1013,0.1107,0.1198,0.1352,0.1424,0.147,0.1516,0.1436,0.1325,0.1207,0.1223,0.1131,0.1104,0.1144,0.1141,0.1143,0.118,0.1108,0.1108,0.1108,0.1107,0,0.0666,0.0691,0.0752,0.0837,0.0912,0.1004,0.1113,0.1183,0.1316,0.1416,0.1539,0.1579,0.1523,0.1437,0.1283,0.1197,0.1195,0.1116,0.1188,0.1198,0.1183,0.1205,0.1068,0.1104,0.1104,0.1104,0.1104,0.1105,0.0682,0.0722,0.0793,0.0873,0.0961,0.1066,0.1137,0.126,0.1387,0.1531,0.1581,0.1615,0.1542,0.1337,0.1265,0.1164,0.1151,0.1128,0.1146,0.1148,0.12,0.1035,0.1026,0.1026,0.1026,0.1026,0.1026,0,0.0702,0.0753,0.083,0.0926,0.1011,0.1058,0.1208,0.1281,0.1415,0.1514,0.1595,0.1548,0.1475,0.1375,0.1249,0.1221,0.1223,0.1215,0.126,0.13,0.1186,0.1197,0.1191,0.1191,0.1191,0.1191,0.119,0.119,0.0718,0.0785,0.0823,0.0947,0.1014,0.1121,0.1196,0.1312,0.1394,0.1461,0.1447,0.1449,0.1433,0.1377,0.1362,0.1344,0.1423,0.1348,0.1409,0.1364,0.1359,0.1355,0.1373,0.1404,0.1404,0.1543,0.1544,0.1545]}],[{"header":{"parameterUnit":"m.s-1","parameterCategory":2,"la1":30.2991,"la2":30.254,"lo1":-89.0895,"lo2":-89.0444,"dy":0.0017,"dx":0.0017,"nx":28,"ny":28,"refTime":"2025-05-23T09:00:00:Z","depth":"2","parameterNumber":2,"parameterNumberName":"U-component_of_CURRENTS"},"data":[0,0,0,0,0,0,0,0,0,0,0,0,0,0,0,0,0,0,0,0,0,0,0,0,0,0,0,0,0,0,0,0,0,0,0,0,0,0,0,0,0,0,0,0,0,0,0,0,0,0,0,0,0,0,0,0,0,0,0.1947,0.1947,0,0.1958,0.1958,0.1958,0.1982,0.1982,0.1983,0.1984,0.1977,0.1977,0.1976,0,0,0,0,0,0,0,0,0,0,0,0,0,0.196,0.1959,0.1947,0.1947,0.1948,0.1958,0.1958,0.1958,0.1982,0.1982,0.1983,0.1984,0.1978,0.1977,0.1976,0,0,0,0,0,0,0,0,0,0,0,0,0,0.1959,0.1959,0.1947,0.1962,0.1964,0.1958,0.1958,0.1958,0.1981,0.1982,0.1983,0.1984,0.1978,0.1977,0.1976,0.1949,0,0,0.1972,0.1972,0,0,0,0,0,0,0,0,0.1959,0.1958,0.1959,0.1961,0.1963,0.1971,0.1961,0.1955,0.1981,0.1973,0.1984,0.1985,0.1974,0.1973,0.1971,0.1949,0.1949,0.1972,0.1971,0.1971,0.1971,0,0,0,0,0,0,0,0.1959,0.1958,0.1949,0.196,0.1962,0.1973,0.1974,0.196,0.1966,0.1973,0.1976,0.198,0.1975,0.1972,0.1971,0.1949,0.1972,0.1971,0.197,0.197,0.205,0.2053,0,0,0,0,0,0,0.1959,0.1958,0.1949,0.195,0.1965,0.1972,0.1973,0.1966,0.1967,0.1968,0.1979,0.1981,0.1974,0.1972,0.1971,0.2034,0.1971,0.197,0.1969,0.2047,0.2051,0.2054,0,0,0,0,0,0,0.1959,0.1958,0.1949,0.1957,0.1956,0.1971,0.1963,0.1966,0.1978,0.1971,0.1973,0.199,0.1974,0.1972,0.1986,0.2031,0.1969,0.1968,0.2044,0.2048,0.2052,0.21,0,0,0,0,0,0,0.1959,0.1958,0.1957,0.1956,0.1956,0.1958,0.1962,0.1965,0.1979,0.1982,0.1981,0.1981,0.1975,0.1988,0.1985,0.2028,0.1967,0.204,0.2046,0.2051,0.2095,0.2106,0.2115,0,0,0,0,0,0.196,0.1961,0.1956,0.1956,0.1953,0.1958,0.1959,0.1972,0.1978,0.1985,0.1996,0.1982,0.2021,0.1987,0.1984,0.2028,0.2038,0.2044,0.2051,0.2091,0.2104,0.2114,0,0,0,0,0,0,0.197,0.1964,0.1959,0.1958,0.1961,0.1963,0.1974,0.1977,0.1988,0.1994,0.199,0.199,0.2033,0.2022,0.1986,0.2075,0.2038,0.2043,0.207,0.2082,0.2091,0.209,0.1967,0,0,0,0,0,0.1968,0.1966,0.1963,0.1963,0.1966,0.1968,0.1974,0.1979,0.1987,0.1994,0.1995,0.2016,0.2053,0.2058,0.2078,0.2095,0.2083,0.2135,0.2144,0.2152,0.2154,0.2176,0.2187,0.2075,0.2075,0.2074,0,0,0.1971,0.1969,0.1967,0.1965,0.1968,0.198,0.1975,0.1985,0.2008,0.1989,0.2021,0.2042,0.2069,0.2113,0.2132,0.2106,0.2179,0.216,0.2166,0.2164,0.2184,0.2194,0.2204,0.2079,0.2078,0.2077,0,0,0.1971,0.1974,0.1968,0.1975,0.198,0.1993,0.1999,0.2005,0.2024,0.2045,0.2068,0.2117,0.2131,0.218,0.2204,0.2277,0.2236,0.2288,0.232,0.2342,0.235,0.2358,0.2349,0.2355,0.2284,0.2284,0.2284,0,0.1971,0.1967,0.197,0.1971,0.1975,0.2003,0.2001,0.2037,0.2049,0.2058,0.2067,0.215,0.2177,0.2257,0.2299,0.23,0.228,0.2265,0.2351,0.2358,0.2364,0.2354,0.236,0.2287,0.2287,0.2286,0.2286,0,0.1968,0.197,0.1975,0.1986,0.1989,0.2003,0.2036,0.2071,0.2099,0.2111,0.2182,0.2235,0.2284,0.2321,0.2331,0.2409,0.2369,0.2362,0.2309,0.2378,0.2363,0.2368,0.2292,0.229,0.2289,0.2289,0,0,0.1954,0.1967,0.197,0.1971,0.1996,0.2002,0.2058,0.2095,0.2139,0.2182,0.2215,0.2333,0.2352,0.2386,0.2425,0.2455,0.2501,0.2423,0.2423,0.2393,0.2513,0.2283,0.2267,0.2488,0.2489,0.2491,0.248,0,0.1951,0.1941,0.1956,0.1974,0.1968,0.2016,0.2059,0.2096,0.2152,0.2199,0.2274,0.2338,0.2383,0.2424,0.2465,0.2505,0.2518,0.2503,0.2469,0.2468,0.2239,0.2266,0.2106,0.2064,0.2484,0.2485,0.2486,0,0.1938,0.1931,0.1922,0.1946,0.1951,0.1985,0.2053,0.21,0.218,0.2215,0.2293,0.2336,0.2443,0.2449,0.2549,0.2527,0.2523,0.2535,0.2534,0.2303,0.2248,0.2069,0.2057,0.2494,0.2493,0.2493,0.2492,0,0.1901,0.1916,0.1908,0.1916,0.1951,0.1979,0.2022,0.2093,0.2137,0.2239,0.2269,0.2376,0.2439,0.2485,0.2525,0.2541,0.256,0.259,0.2374,0.2358,0.2206,0.2171,0.2614,0.2614,0.2614,0.2614,0.2614,0,0.1886,0.1887,0.1902,0.1908,0.1928,0.1947,0.2005,0.208,0.2147,0.2183,0.2286,0.2333,0.2446,0.2466,0.2501,0.2429,0.2549,0.237,0.2336,0.2215,0.2183,0.2549,0.2541,0.2613,0.2614,0.2614,0.2614,0,0.1847,0.1859,0.1869,0.1902,0.1914,0.1936,0.1999,0.2033,0.2124,0.218,0.2211,0.2306,0.2329,0.2372,0.2419,0.2374,0.235,0.2276,0.2097,0.2039,0.2147,0.2143,0.2078,0.2069,0.2062,0.2057,0.2052,0,0.1823,0.1816,0.186,0.1869,0.1898,0.1929,0.1935,0.2019,0.2051,0.2156,0.216,0.2194,0.2169,0.2117,0.2051,0.1995,0.2132,0.1785,0.179,0.2116,0.2092,0.2099,0.2104,0.1635,0.1627,0.1621,0.1616,0,0.1785,0.1815,0.1827,0.1834,0.1855,0.1864,0.1893,0.1912,0.1994,0.2015,0.2015,0.1995,0.1916,0.1748,0.1625,0.1595,0.1787,0.1641,0.2054,0.1754,0.1686,0.1666,0.1689,0.1558,0.1564,0.1568,0.1571,0.1573,0.1772,0.1772,0.1789,0.1799,0.1817,0.1801,0.1769,0.1776,0.177,0.1764,0.1807,0.1688,0.1651,0.1352,0.1256,0.1175,0.1335,0.1305,0.1333,0.1366,0.1274,0.1192,0.0956,0.0958,0.096,0.0962,0.0963,0,0.1738,0.1741,0.1738,0.1737,0.171,0.1746,0.1723,0.1643,0.1573,0.1541,0.1478,0.1253,0.1066,0.1033,0.0803,0.0734,0.0822,0.0704,0.085,0.0905,0.0954,0.0851,0.0416,0.0414,0.0413,0.0412,0,0,0.1724,0.1692,0.1676,0.1622,0.1622,0.1537,0.1504,0.1394,0.1326,0.1177,0.1063,0.1056,0.1012,0.0735,0.0653,0.0501,0.0721,0.0464,0.0902,0.1133,0.1182,0.1286,0.1182,0,0,0,0,0]},{"header":{"parameterUnit":"m.s-1","parameterCategory":2,"la1":30.2991,"la2":30.254,"lo1":-89.0895,"lo2":-89.0444,"dy":0.0017,"dx":0.0017,"nx":28,"ny":28,"refTime":"2025-05-23T09:00:00:Z","depth":"2","parameterNumber":3,"parameterNumberName":"V-component_of_CURRENTS"},"data":[0,0,0,0,0,0,0,0,0,0,0,0,0,0,0,0,0,0,0,0,0,0,0,0,0,0,0,0,0,0,0,0,0,0,0,0,0,0,0,0,0,0,0,0,0,0,0,0,0,0,0,0,0,0,0,0,0,0,0.0228,0.0228,0,0.0255,0.0256,0.0256,0.0272,0.0272,0.0272,0.0272,0.0302,0.0303,0.0304,0,0,0,0,0,0,0,0,0,0,0,0,0,0.0186,0.0187,0.0228,0.0228,0.0228,0.0255,0.0256,0.0256,0.0272,0.0272,0.0272,0.0272,0.0302,0.0303,0.0304,0,0,0,0,0,0,0,0,0,0,0,0,0,0.021,0.0187,0.0228,0.0238,0.0239,0.0255,0.0256,0.0257,0.0272,0.0272,0.0272,0.0272,0.0301,0.0303,0.0304,0.0316,0,0,0.0308,0.0309,0,0,0,0,0,0,0,0,0.0208,0.0211,0.0236,0.0237,0.0238,0.0259,0.0252,0.0276,0.0272,0.0262,0.0272,0.0272,0.0287,0.0289,0.0297,0.0317,0.0318,0.0308,0.0309,0.031,0.031,0,0,0,0,0,0,0,0.0207,0.021,0.024,0.0236,0.0238,0.024,0.0243,0.0257,0.0276,0.0262,0.0263,0.0263,0.0287,0.0296,0.0298,0.0319,0.0308,0.0309,0.031,0.0311,0.0366,0.0367,0,0,0,0,0,0,0.02,0.0209,0.024,0.0241,0.0221,0.0241,0.0245,0.0254,0.0276,0.0279,0.0264,0.0264,0.0294,0.0296,0.0299,0.0341,0.031,0.0311,0.0312,0.0365,0.0366,0.0367,0,0,0,0,0,0,0.0199,0.0203,0.0238,0.0223,0.0228,0.0242,0.0252,0.0254,0.0266,0.0276,0.0279,0.0272,0.0294,0.0297,0.0315,0.0341,0.0311,0.0313,0.0365,0.0366,0.0367,0.0408,0,0,0,0,0,0,0.0198,0.0203,0.0208,0.0223,0.0228,0.0253,0.0252,0.0255,0.0265,0.0266,0.0285,0.0287,0.0294,0.0313,0.0316,0.0343,0.0314,0.0364,0.0365,0.0366,0.0406,0.041,0.0414,0,0,0,0,0,0.0197,0.0206,0.0208,0.0212,0.0235,0.0253,0.0257,0.0266,0.0265,0.0275,0.0285,0.0287,0.0323,0.0315,0.0319,0.0346,0.0363,0.0365,0.0366,0.0404,0.041,0.0414,0,0,0,0,0,0,0.0189,0.0209,0.0212,0.0226,0.0239,0.0255,0.0264,0.0268,0.0284,0.0286,0.0294,0.0298,0.0326,0.0325,0.0315,0.0364,0.0344,0.0347,0.0372,0.0377,0.0381,0.0398,0.0315,0,0,0,0,0,0.0189,0.0205,0.0219,0.0231,0.0238,0.0251,0.0258,0.0267,0.0281,0.0288,0.0298,0.0312,0.0335,0.0346,0.0361,0.0385,0.0384,0.0404,0.0409,0.0412,0.0428,0.0442,0.0449,0.0372,0.0372,0.0372,0,0,0.0187,0.0201,0.0209,0.023,0.0242,0.0261,0.0256,0.0273,0.0297,0.0289,0.0321,0.0327,0.0344,0.0376,0.0388,0.0378,0.0431,0.0414,0.0417,0.0432,0.0445,0.0452,0.0459,0.0373,0.0373,0.0372,0,0,0.0196,0.0207,0.0224,0.0238,0.0257,0.0268,0.0273,0.0291,0.031,0.0335,0.0342,0.0362,0.0386,0.041,0.0424,0.0459,0.0452,0.046,0.0499,0.0513,0.0519,0.0525,0.0523,0.0528,0.0463,0.0463,0.0463,0,0.0193,0.0222,0.023,0.0251,0.0266,0.0272,0.0295,0.0318,0.034,0.0361,0.035,0.0404,0.0409,0.0467,0.0478,0.0471,0.047,0.048,0.0519,0.0525,0.053,0.0526,0.0532,0.0465,0.0465,0.0465,0.0464,0,0.022,0.0241,0.0253,0.0285,0.0299,0.0322,0.0347,0.037,0.0384,0.0403,0.0455,0.0468,0.0503,0.0506,0.0504,0.0554,0.0536,0.0522,0.0508,0.0541,0.0534,0.0539,0.0468,0.0468,0.0467,0.0466,0,0,0.0223,0.0265,0.0271,0.0295,0.0323,0.0342,0.0382,0.0425,0.0467,0.0485,0.0537,0.0573,0.0579,0.0597,0.0602,0.0612,0.0637,0.0586,0.0585,0.0586,0.0658,0.0612,0.0613,0.0629,0.063,0.0631,0.0633,0,0.0246,0.0292,0.0308,0.0354,0.038,0.0401,0.0443,0.0479,0.0512,0.0561,0.0587,0.0638,0.0618,0.0646,0.0654,0.0654,0.0654,0.0637,0.0624,0.0623,0.0582,0.0619,0.0621,0.0621,0.0638,0.0639,0.064,0,0.0273,0.0303,0.0349,0.0404,0.0419,0.0449,0.0519,0.0559,0.062,0.0649,0.0696,0.0715,0.0763,0.0725,0.0748,0.0739,0.0704,0.0685,0.0684,0.0636,0.0588,0.0592,0.0629,0.0648,0.0647,0.0646,0.0646,0,0.0282,0.0335,0.0376,0.0394,0.0452,0.0487,0.0524,0.0584,0.0643,0.0713,0.0764,0.0803,0.0848,0.0824,0.079,0.0777,0.0785,0.0759,0.0681,0.0677,0.0674,0.0667,0.0754,0.0754,0.0754,0.0754,0.0754,0,0.0306,0.034,0.0388,0.0415,0.048,0.0508,0.0589,0.0636,0.0715,0.0797,0.0819,0.0893,0.0876,0.0878,0.082,0.0774,0.0811,0.0703,0.0684,0.0685,0.0679,0.07,0.0693,0.0754,0.0754,0.0754,0.0754,0,0.031,0.0339,0.0395,0.0462,0.0487,0.0536,0.0634,0.0698,0.0772,0.0881,0.0915,0.0977,0.0988,0.0939,0.0899,0.0827,0.0772,0.073,0.0724,0.0703,0.0645,0.0641,0.0668,0.0667,0.0666,0.0665,0.0664,0,0.032,0.0346,0.0426,0.0469,0.0504,0.0578,0.0635,0.0718,0.0794,0.0937,0.0995,0.1041,0.1063,0.0982,0.0884,0.0778,0.0753,0.0681,0.0654,0.0663,0.0641,0.0639,0.0636,0.0664,0.0663,0.0662,0.0662,0,0.034,0.0367,0.0414,0.0493,0.0559,0.0637,0.0729,0.0802,0.0914,0.1002,0.1105,0.1128,0.1079,0.0982,0.0834,0.0757,0.0702,0.0663,0.0702,0.0674,0.0655,0.0634,0.0633,0.0656,0.0657,0.0657,0.0658,0.0658,0.0359,0.0391,0.045,0.0527,0.0606,0.0701,0.0763,0.0865,0.0977,0.1108,0.113,0.1137,0.107,0.0868,0.077,0.066,0.067,0.0601,0.0605,0.0609,0.0597,0.0576,0.0559,0.0559,0.0559,0.0559,0.0559,0,0.0385,0.0418,0.0483,0.0575,0.0654,0.0696,0.0826,0.0879,0.0997,0.1087,0.1137,0.1016,0.0932,0.0838,0.0683,0.0589,0.0597,0.0538,0.0575,0.0581,0.0586,0.0575,0.0531,0.053,0.053,0.053,0,0,0.04,0.0447,0.0473,0.0591,0.0664,0.0755,0.0826,0.091,0.0977,0.1027,0.1023,0.1033,0.0934,0.0805,0.0707,0.0617,0.0613,0.0591,0.0623,0.0686,0.0691,0.0631,0.0619,0,0,0,0,0]}],[{"header":{"parameterUnit":"m.s-1","parameterCategory":2,"la1":30.2991,"la2":30.254,"lo1":-89.0895,"lo2":-89.0444,"dy":0.0017,"dx":0.0017,"nx":28,"ny":28,"refTime":"2025-05-23T09:00:00:Z","depth":"4","parameterNumber":2,"parameterNumberName":"U-component_of_CURRENTS"},"data":[0,0,0,0,0,0,0,0,0,0,0,0,0,0,0,0,0,0,0,0,0,0,0,0,0,0,0,0,0,0,0,0,0,0,0,0,0,0,0,0,0,0,0,0,0,0,0,0,0,0,0,0,0,0,0,0,0,0,0.0908,0.0908,0,0.0905,0.0905,0.0905,0.0912,0.0912,0.0913,0.0913,0.0935,0.0936,0.0936,0,0,0,0,0,0,0,0,0,0,0,0,0,0.0954,0.0953,0.0908,0.0908,0.0908,0.0905,0.0905,0.0905,0.0912,0.0912,0.0913,0.0913,0.0935,0.0936,0.0936,0,0,0,0,0,0,0,0,0,0,0,0,0,0.0942,0.0953,0.0908,0.091,0.091,0.0905,0.0905,0.0905,0.0912,0.0912,0.0913,0.0913,0.0935,0.0935,0.0936,0.0938,0,0,0.0938,0.0939,0,0,0,0,0,0,0,0,0.0943,0.0941,0.091,0.091,0.091,0.0908,0.0929,0.0917,0.0912,0.0913,0.0913,0.0913,0.0927,0.0929,0.0929,0.0939,0.094,0.0939,0.0939,0.0939,0.094,0,0,0,0,0,0,0,0.0944,0.0941,0.0908,0.091,0.091,0.0922,0.092,0.0927,0.0921,0.0913,0.0913,0.091,0.0928,0.0929,0.093,0.094,0.0939,0.0939,0.094,0.094,0.0991,0.0992,0,0,0,0,0,0,0.0939,0.0941,0.0908,0.0908,0.0925,0.0921,0.0919,0.091,0.092,0.0922,0.091,0.0911,0.0927,0.0929,0.0931,0.0963,0.0939,0.094,0.094,0.099,0.0991,0.0992,0,0,0,0,0,0,0.094,0.0936,0.0909,0.0924,0.0921,0.0919,0.0909,0.0909,0.0929,0.0918,0.092,0.0932,0.0928,0.093,0.094,0.0963,0.094,0.0941,0.0989,0.0991,0.0992,0.1009,0,0,0,0,0,0,0.0941,0.0936,0.094,0.0923,0.092,0.0915,0.0909,0.0909,0.0925,0.0926,0.0936,0.0937,0.0928,0.0939,0.0941,0.0964,0.0942,0.0988,0.099,0.0991,0.1007,0.101,0.1013,0,0,0,0,0,0.0942,0.0937,0.094,0.0936,0.0921,0.0916,0.0916,0.0916,0.0926,0.0936,0.0936,0.0938,0.0952,0.094,0.0942,0.0965,0.0987,0.0989,0.0991,0.1005,0.101,0.1013,0,0,0,0,0,0,0.0957,0.0937,0.0939,0.0929,0.093,0.0917,0.0926,0.0931,0.094,0.095,0.0941,0.0942,0.0965,0.0963,0.095,0.0987,0.0974,0.0976,0.0984,0.0988,0.0991,0.0998,0.0942,0,0,0,0,0,0.0962,0.0958,0.0943,0.0941,0.0942,0.0943,0.0946,0.095,0.0949,0.0955,0.096,0.0967,0.0973,0.0977,0.0985,0.0999,0.1012,0.1019,0.1022,0.1025,0.1033,0.1085,0.1094,0.0999,0.0999,0.0999,0,0,0.0966,0.0958,0.0955,0.0946,0.0949,0.0938,0.0946,0.0959,0.0957,0.0956,0.0968,0.0984,0.0981,0.0995,0.1007,0.0996,0.1053,0.1028,0.103,0.1036,0.1088,0.1098,0.1106,0.1,0.1,0.1,0,0,0.0967,0.0969,0.0964,0.0964,0.0971,0.096,0.0968,0.0972,0.0985,0.1,0.0998,0.1022,0.1035,0.103,0.103,0.1058,0.1074,0.1072,0.1088,0.1139,0.1147,0.1155,0.1157,0.1165,0.1068,0.1068,0.1068,0,0.0979,0.0961,0.0965,0.0961,0.0959,0.0968,0.0963,0.0969,0.0979,0.0998,0.1011,0.105,0.105,0.1058,0.1066,0.1066,0.1088,0.1069,0.1143,0.1151,0.1159,0.116,0.1169,0.1069,0.1069,0.1069,0.1069,0,0.0966,0.0961,0.0961,0.0948,0.0951,0.0953,0.0953,0.0969,0.0995,0.1012,0.1061,0.1071,0.11,0.1103,0.1092,0.1141,0.1135,0.1146,0.1132,0.1169,0.1168,0.1176,0.1071,0.107,0.107,0.107,0,0,0.0964,0.0952,0.0955,0.0952,0.0949,0.0948,0.095,0.0959,0.0984,0.1023,0.107,0.1085,0.1132,0.1134,0.1138,0.1171,0.1229,0.1186,0.1188,0.1186,0.1322,0.1171,0.1165,0.1267,0.1269,0.1271,0.129,0,0.0954,0.094,0.0938,0.0926,0.0915,0.0927,0.093,0.0952,0.0991,0.1041,0.1085,0.1137,0.113,0.1169,0.1202,0.123,0.1258,0.1221,0.1289,0.129,0.115,0.1173,0.1278,0.1296,0.1298,0.1299,0.13,0,0.0935,0.0928,0.0919,0.0918,0.092,0.092,0.0946,0.0958,0.102,0.1065,0.1131,0.1183,0.123,0.1242,0.1302,0.1288,0.1313,0.1327,0.1329,0.1191,0.1156,0.1259,0.1316,0.1314,0.1313,0.1312,0.1311,0,0.0919,0.0913,0.0908,0.0907,0.0906,0.0923,0.0934,0.0981,0.1011,0.1103,0.1156,0.1225,0.1278,0.1331,0.1351,0.1355,0.1416,0.1423,0.1301,0.1289,0.1413,0.1405,0.1486,0.1486,0.1486,0.1486,0.1486,0,0.0886,0.0882,0.091,0.0902,0.0914,0.0935,0.0967,0.0992,0.1064,0.1102,0.1187,0.1224,0.1317,0.1356,0.1377,0.134,0.1437,0.1302,0.1291,0.1414,0.1407,0.1417,0.1409,0.1486,0.1486,0.1486,0.1486,0,0.085,0.0863,0.086,0.0886,0.0901,0.092,0.0969,0.0992,0.1069,0.1125,0.1165,0.125,0.1283,0.1329,0.1396,0.1345,0.1345,0.1313,0.1409,0.1404,0.1179,0.1172,0.1184,0.1179,0.1175,0.1172,0.1169,0,0.0818,0.0818,0.0854,0.0863,0.0876,0.091,0.0924,0.0988,0.1007,0.111,0.1123,0.1204,0.1241,0.1208,0.1258,0.1259,0.1248,0.1229,0.1229,0.1163,0.1153,0.1152,0.115,0.1162,0.1161,0.116,0.1159,0,0.0765,0.0798,0.0797,0.0819,0.0839,0.0851,0.0881,0.0892,0.0958,0.104,0.1067,0.1092,0.111,0.1131,0.1128,0.1133,0.1231,0.1185,0.1194,0.1195,0.1136,0.1129,0.1133,0.1144,0.1146,0.1147,0.1148,0,0.0741,0.0732,0.075,0.0756,0.0781,0.078,0.0804,0.0817,0.0848,0.0958,0.0955,0.1032,0.1102,0.1062,0.1061,0.1042,0.1034,0.1002,0.1021,0.1037,0.0974,0.0877,0.0796,0,0,0,0,0,0.0714,0.0687,0.0685,0.0679,0.0702,0.0721,0.0759,0.0786,0.085,0.0843,0.0902,0.0916,0.092,0.0948,0.09,0.0971,0.1026,0.0905,0.0997,0.1062,0.1079,0.1015,0,0,0,0,0,0,0.0689,0.0682,0.0656,0.0613,0.0607,0.062,0.0649,0.07,0.0691,0.0774,0.0785,0.0842,0.0862,0.0949,0.0884,0.0886,0.0916,0.0943,0.0939,0.1053,0.1068,0.1082,0.1021,0,0,0,0,0]},{"header":{"parameterUnit":"m.s-1","parameterCategory":2,"la1":30.2991,"la2":30.254,"lo1":-89.0895,"lo2":-89.0444,"dy":0.0017,"dx":0.0017,"nx":28,"ny":28,"refTime":"2025-05-23T09:00:00:Z","depth":"4","parameterNumber":3,"parameterNumberName":"V-component_of_CURRENTS"},"data":[0,0,0,0,0,0,0,0,0,0,0,0,0,0,0,0,0,0,0,0,0,0,0,0,0,0,0,0,0,0,0,0,0,0,0,0,0,0,0,0,0,0,0,0,0,0,0,0,0,0,0,0,0,0,0,0,0,0,0.0138,0.0138,0,0.0158,0.0158,0.0159,0.0167,0.0166,0.0166,0.0166,0.019,0.0191,0.0191,0,0,0,0,0,0,0,0,0,0,0,0,0,0.0107,0.0108,0.0138,0.0138,0.0139,0.0158,0.0158,0.0159,0.0167,0.0166,0.0166,0.0166,0.019,0.0191,0.0191,0,0,0,0,0,0,0,0,0,0,0,0,0,0.0124,0.0108,0.0138,0.0144,0.0145,0.0158,0.0158,0.0159,0.0167,0.0166,0.0166,0.0166,0.0189,0.019,0.0192,0.0203,0,0,0.0195,0.0196,0,0,0,0,0,0,0,0,0.0123,0.0126,0.0143,0.0144,0.0144,0.0159,0.0156,0.0174,0.0167,0.016,0.0166,0.0166,0.0179,0.0181,0.0187,0.0205,0.0206,0.0195,0.0196,0.0196,0.0197,0,0,0,0,0,0,0,0.0122,0.0125,0.0147,0.0143,0.0144,0.0145,0.0148,0.016,0.0171,0.016,0.016,0.0161,0.018,0.0186,0.0188,0.0206,0.0195,0.0196,0.0197,0.0197,0.0238,0.0238,0,0,0,0,0,0,0.0118,0.0124,0.0147,0.0148,0.0132,0.0146,0.0149,0.0155,0.0171,0.0173,0.0161,0.0161,0.0184,0.0186,0.0188,0.0214,0.0196,0.0198,0.0198,0.0238,0.0238,0.0238,0,0,0,0,0,0,0.0117,0.012,0.0146,0.0135,0.0138,0.0147,0.0154,0.0156,0.0164,0.0172,0.0174,0.0167,0.0184,0.0187,0.0201,0.0215,0.0198,0.0199,0.0237,0.0238,0.0238,0.0259,0,0,0,0,0,0,0.0116,0.012,0.0124,0.0135,0.0138,0.0155,0.0154,0.0156,0.0163,0.0164,0.0178,0.0179,0.0184,0.02,0.0202,0.0216,0.02,0.0237,0.0237,0.0238,0.0258,0.026,0.0262,0,0,0,0,0,0.0115,0.0122,0.0124,0.0127,0.0144,0.0155,0.0158,0.0164,0.0164,0.017,0.0178,0.0179,0.0206,0.0201,0.0204,0.0218,0.0236,0.0237,0.0238,0.0257,0.026,0.0262,0,0,0,0,0,0,0.011,0.0124,0.0126,0.0137,0.0146,0.0156,0.0162,0.0166,0.0178,0.0181,0.0186,0.0188,0.0207,0.0208,0.0202,0.0231,0.0221,0.0222,0.0234,0.0237,0.0239,0.0238,0.0201,0,0,0,0,0,0.0111,0.0122,0.0132,0.0141,0.0145,0.0154,0.016,0.0166,0.0176,0.0181,0.0189,0.0199,0.0213,0.022,0.0231,0.0248,0.0238,0.0258,0.026,0.0262,0.0263,0.0257,0.0259,0.0241,0.0241,0.0241,0,0,0.011,0.0121,0.0125,0.0141,0.0148,0.0162,0.0158,0.017,0.0185,0.0183,0.0203,0.0208,0.0219,0.0238,0.0246,0.0241,0.0261,0.0263,0.0265,0.0265,0.0258,0.026,0.0261,0.0242,0.0242,0.0242,0,0,0.0117,0.0125,0.0136,0.0146,0.016,0.0169,0.0172,0.0185,0.0194,0.0212,0.0216,0.0224,0.0245,0.0253,0.0261,0.028,0.0273,0.0288,0.03,0.0295,0.0296,0.0297,0.0282,0.0281,0.0289,0.0289,0.0289,0,0.0115,0.0135,0.014,0.0156,0.0167,0.0173,0.019,0.0201,0.0217,0.0228,0.022,0.0247,0.0251,0.0276,0.0284,0.0286,0.0279,0.029,0.0297,0.0298,0.0299,0.0283,0.0282,0.029,0.029,0.029,0.029,0,0.0132,0.0148,0.0156,0.018,0.0192,0.0209,0.0223,0.0237,0.0245,0.0255,0.0275,0.0274,0.0291,0.0293,0.0296,0.0311,0.0303,0.03,0.029,0.0302,0.0284,0.0283,0.0292,0.0291,0.0291,0.0291,0,0,0.0128,0.0162,0.0166,0.0185,0.0209,0.0224,0.0249,0.0274,0.0296,0.0298,0.0321,0.033,0.0326,0.0333,0.0333,0.0325,0.0321,0.0318,0.0318,0.0302,0.0305,0.0296,0.0294,0.0323,0.0323,0.0323,0.0289,0,0.0142,0.0178,0.0191,0.0227,0.0247,0.0264,0.029,0.0313,0.0326,0.0349,0.0344,0.0366,0.0344,0.0356,0.0343,0.0334,0.032,0.033,0.0297,0.0295,0.0285,0.0293,0.0323,0.0288,0.0288,0.0288,0.0287,0,0.0155,0.0181,0.0218,0.0263,0.0274,0.0297,0.0342,0.0365,0.0393,0.0403,0.041,0.041,0.0409,0.0386,0.0354,0.0364,0.0337,0.0315,0.0314,0.0298,0.0285,0.0275,0.0285,0.0285,0.0285,0.0286,0.0286,0,0.0157,0.0202,0.0235,0.0249,0.0296,0.0321,0.035,0.0384,0.0414,0.044,0.0459,0.045,0.0453,0.0415,0.037,0.0368,0.0326,0.0318,0.0278,0.0276,0.0284,0.0283,0.0289,0.0289,0.0289,0.0289,0.0289,0,0.0169,0.0195,0.0242,0.0261,0.031,0.0338,0.0391,0.0413,0.0456,0.0492,0.0488,0.0501,0.0462,0.0435,0.0385,0.0327,0.0335,0.0279,0.0269,0.0293,0.0294,0.0283,0.0282,0.0288,0.0288,0.0289,0.0289,0,0.0165,0.0191,0.0234,0.029,0.0312,0.0348,0.0422,0.0459,0.0492,0.0536,0.0549,0.0548,0.0512,0.0461,0.0401,0.035,0.0293,0.0269,0.0295,0.0287,0.0241,0.0242,0.0222,0.0222,0.0221,0.0221,0.022,0,0.0167,0.0189,0.0252,0.0284,0.0312,0.0373,0.0418,0.0472,0.0509,0.0556,0.0573,0.0565,0.0552,0.0455,0.0396,0.0302,0.0285,0.0249,0.0245,0.0243,0.0235,0.0237,0.0239,0.022,0.022,0.0219,0.0219,0,0.0174,0.0195,0.0228,0.0292,0.0343,0.0403,0.0466,0.0499,0.0556,0.0586,0.0595,0.0563,0.0524,0.0451,0.0385,0.0313,0.027,0.0244,0.0244,0.024,0.024,0.0233,0.0235,0.0218,0.0218,0.0218,0.0218,0,0.0178,0.02,0.0245,0.03,0.0361,0.0416,0.0456,0.0506,0.0548,0.0597,0.0593,0.0563,0.055,0.0456,0.039,0.0328,0.0306,0.027,0.0269,0.027,0.0293,0.0301,0.029,0,0,0,0,0,0.0185,0.0206,0.0254,0.0313,0.0372,0.0409,0.048,0.0516,0.0569,0.0575,0.059,0.0554,0.0476,0.0443,0.0379,0.0371,0.0288,0.0291,0.0245,0.0209,0.0211,0.023,0,0,0,0,0,0,0.0189,0.0226,0.0246,0.0311,0.0353,0.042,0.0466,0.0504,0.0512,0.055,0.051,0.0515,0.0438,0.0507,0.0368,0.0352,0.0309,0.0264,0.0262,0.0208,0.021,0.0211,0.0231,0,0,0,0,0]}]]